sat.trackr.live / text

‹ back to catalog

2023-104A

NORAD 57424 · 2023-104A

PAYLOAD ACTIVE UNKNOWN

§ Identity

Operator
Country
PRC
Launch date
2023-07-23
Launch site
TAISC
Launch vehicle
Mass (kg)
RCS (m²)

External: N2YO · Heavens-Above · Gunter

§ Orbital elements

Epoch: 2026-05-25T04:22:44.895648Z

Period
93.84 min
Inclination
97.2705°
Eccentricity
0.0007493
Mean motion
15.34448633 rev/d
Perigee alt
457.4 km
Apogee alt
467.7 km
Semi-major
6,840.7 km
B*
2.9612e-4
RAAN
213.7576°
Arg perigee
185.0733°
Mean anomaly
175.0435°
Rev number
15,851

§ Raw data

2023-104A1 57424U 23104A   26145.18246407  .00009812  00000+0  29612-3 0  99942 57424  97.2705 213.7576 0007493 185.0733 175.0435 15.34448633158511

JSON: /api/v1/satellites/57424 · /tle

For live sub-satellite position, see the globe view (requires WebGL).

§ Visibility from observer

Set your observer location to see the next 7 days of passes ≥ 10°. The values pass through the URL so the page stays shareable.

No JS? Fill the form by hand. The geolocation button needs JavaScript.